Winnipeg Forks, Manitoba

8:43 AM CDT on July 21, 2017 (GMT -0500)
Winnipeg Forks

Weather History for CXWN - August, 2013

Change the Weather History Date:

Tuesday, August 27, 2013

  Actual Average (CYWG) Record (CYWG)
Temperature  
Mean Temperature 80 °F -  
Max Temperature 91 °F 73 °F 92 °F (2013)
Min Temperature 69 °F 51 °F 42 °F (2003)
Cooling Degree Days 15    
Growing Degree Days 30 (Base 50)    
Moisture  
Dew Point 65 °F    
Average Humidity 63    
Maximum Humidity 87    
Minimum Humidity 33    
Precipitation  
Precipitation 0.00 in - - ()
Sea Level Pressure  
Sea Level Pressure 29.84 in    
Wind  
Wind Speed 2 mph ()    
Max Wind Speed 6 mph    
Max Gust Speed -    
Averages and records for this station are not official NWS values.
T = Trace of Precipitation, MM = Missing Value Source: Averaged Metar Reports

Daily Weather History Graph

Daily Weather History Graph

Search for Another Location

Airport or City:

Trip Planner

Search our weather history database for the weather conditions in past years. The results will help you decide how hot, cold, wet, or windy it might be!

Date:

Astronomy

Aug. 27, 2013 Rise Set
Actual Time 6:36 AM CDT 8:22 PM CDT
Civil Twilight 6:02 AM CDT 8:56 PM CDT
Nautical Twilight 5:20 AM CDT 9:37 PM CDT
Astronomical Twilight 4:33 AM CDT 10:23 PM CDT
Moon 11:32 PM CDT (8/27) 2:19 PM CDT (8/27)
Length of Visible Light 14h 53m
Length of Day
13h 45m
Waning Gibbous, 57% of the Moon is Illuminated
Aug 27
Waning Gibbous
Aug 28
Last Quarter
Sep 5
New
Sep 12
First Quarter
Sep 19
Full

Hourly Weather History & Observations

Time (CDT) Temp. Heat Index Dew Point Humidity Pressure Visibility Wind Dir Wind Speed Gust Speed Precip Events Conditions
12:00 AM 73.8 °F - 64.4 °F 72% 29.83 in - SW 2.3 mph - N/A   Unknown
1:00 AM 71 °F - 65 °F 75% 29.83 in - East 1.2 mph - -  
1:00 AM 71.4 °F - 64.8 °F 79% 29.83 in - East 1.2 mph - N/A   Unknown
2:00 AM 72.0 °F - 64.8 °F 78% 29.83 in - SW 2.3 mph - N/A   Unknown
3:00 AM 71.6 °F - 65.3 °F 80% 29.83 in - SSW 1.2 mph - N/A   Unknown
4:00 AM 71.1 °F - 65.7 °F 83% 29.82 in - ESE 1.2 mph - N/A   Unknown
5:00 AM 69.4 °F - 65.1 °F 86% 29.83 in - SW 1.2 mph - N/A   Unknown
6:00 AM 69.3 °F - 65.3 °F 87% 29.83 in - SSW 1.2 mph - N/A   Unknown
7:00 AM 70 °F - 65 °F 80% 29.85 in - SW 3.5 mph - -  
7:00 AM 70.2 °F - 65.1 °F 84% 29.85 in - SW 3.5 mph - N/A   Unknown
8:00 AM 70.9 °F - 65.7 °F 83% 29.85 in - South 1.2 mph - N/A   Unknown
9:00 AM 74.5 °F - 67.8 °F 80% 29.85 in - SSW 2.3 mph - N/A   Unknown
10:00 AM 78.3 °F - 68.5 °F 72% 29.86 in - ENE 2.3 mph - N/A   Unknown
11:00 AM 81.5 °F 84.9 °F 69.4 °F 67% 29.86 in - SE 1.2 mph - N/A   Unknown
12:00 PM 84.6 °F 86.8 °F 66.4 °F 54% 29.86 in - SE 2.3 mph - N/A   Unknown
1:00 PM 86 °F - 66 °F 41% 29.85 in - SW 5.8 mph - -  
1:00 PM 86.2 °F 88.4 °F 65.8 °F 51% 29.85 in - SW 5.8 mph - N/A   Unknown
2:00 PM 87.8 °F 90.4 °F 66.7 °F 49% 29.84 in - SSW 2.3 mph - N/A   Unknown
3:00 PM 89.2 °F 90.9 °F 64.9 °F 44% 29.83 in - East 3.5 mph - N/A   Unknown
4:00 PM 90.9 °F 91.3 °F 61.9 °F 38% 29.83 in - SSW 1.2 mph - N/A   Unknown
5:00 PM 90.9 °F 91.3 °F 61.7 °F 38% 29.83 in - South 1.2 mph - N/A   Unknown
6:00 PM 89.8 °F 90.7 °F 63.0 °F 41% 29.83 in - SW 1.2 mph - N/A   Unknown
7:00 PM 89 °F - 64 °F 33% 29.83 in - SW 2.3 mph - -  
7:00 PM 89.4 °F 90.5 °F 63.9 °F 42% 29.83 in - SW 2.3 mph - N/A   Unknown
8:00 PM 87.1 °F 88.9 °F 65.1 °F 48% 29.84 in - WSW 1.2 mph - N/A   Unknown
9:00 PM 83.8 °F 85.8 °F 65.7 °F 54% 29.85 in - SSW 3.5 mph - N/A   Unknown
10:00 PM 82.6 °F 84.9 °F 66.2 °F 58% 29.86 in - West 2.3 mph - N/A   Unknown
11:00 PM 81.3 °F 83.6 °F 66.7 °F 61% 29.87 in - SSW 1.2 mph - N/A   Unknown